Location: Stonelick Lake State Park
(39.2170°N, 84.0850°W)
Time: 00:04:53
(UTC-04:00)

Amateur Radio Satellites - All Passes

Search period start: 29 July 2015 23:34
Search period end: 30 July 2015 23:34
Location: Stonelick Lake State Park, 39.2170°N, 84.0850°W

Satellite Date Start Highest point End Downlink Frequencies (MHz)
Time Altitude Azimuth
UWE-3 29 Jul 23:41:34 23:44:14 16° 269° (W) 23:46:46 435.000/436.395/437.385
FUNcube-1 29 Jul 23:46:21 23:49:21 19° 268° (W) 23:52:18 145.935
AISAT 29 Jul 23:51:24 23:55:49 86° 77° (ENE) 00:00:14 437.250
DUCHIFAT 1 29 Jul 23:57:40 00:00:37 19° 93° (E) 00:03:41 145.980
QB50P1 29 Jul 23:58:41 00:01:47 20° 93° (E) 00:05:02 145.935-145.965
NANOSAT C BR1 30 Jul 00:00:58 00:04:10 21° 94° (E) 00:07:28 145.865
UKube-1 30 Jul 00:03:31 00:07:38 43° 261° (W) 00:11:46 .
BEESAT 2 30 Jul 00:07:15 00:09:02 13° 110° (ESE) 00:11:02 435.950
M-CUBED/EXP-1 PRIME 30 Jul 00:11:30 00:15:42 30° 295° (WNW) 00:19:47 437.505
UNISAT 6 30 Jul 00:12:49 00:17:31 82° 102° (ESE) 00:22:15 437.425
CUBEBUG 1 30 Jul 00:14:06 00:18:28 83° 76° (ENE) 00:22:51 437.445
DX 1 30 Jul 00:28:22 00:31:46 21° 266° (W) 00:35:04 434.975-435.025
VELOX 1 30 Jul 00:31:46 00:35:50 35° 263° (W) 00:39:52 145.980
ESTCUBE 1 30 Jul 00:32:18 00:36:45 51° 261° (W) 00:41:11 437.505/2401.250
HUMSAT D 30 Jul 00:33:27 00:35:33 13° 271° (W) 00:37:26 437.325/437.525
POLYITAN 1 30 Jul 00:39:32 00:43:47 62° 101° (E) 00:48:02 437.675
PHONESAT 2.4 30 Jul 00:39:50 00:43:20 69° 1° (N) 00:46:49 2401.200-2431.200
AUBIESAT-1 30 Jul 00:44:22 00:47:32 17° 299° (WNW) 00:50:31 437.475
AIST 1 30 Jul 00:46:37 00:50:52 66° 265° (W) 00:55:03
ISS 30 Jul 00:48:34 00:50:36 15° 341° (NNW) 00:52:36 145.825
BEESAT 3 30 Jul 00:48:40 00:52:34 50° 118° (ESE) 00:56:33 437.485
Cosmos 2491 30 Jul 00:53:15 01:02:01 86° 82° (E) 01:10:45 435.465 / 435.565
TIGRISAT 30 Jul 00:57:40 01:01:56 35° 289° (WNW) 01:06:10 435.000
POPSAT HIP 1 30 Jul 00:57:43 01:01:59 83° 284° (WNW) 01:06:15 437.405
ANTELSAT 30 Jul 00:58:19 01:02:32 34° 289° (WNW) 01:06:44 437.575/2403.000
RS-15 30 Jul 00:58:33 01:08:36 38° 321° (NW) 01:18:53 29.354- 29.394
SPROUT 30 Jul 01:00:28 01:04:44 78° 77° (ENE) 01:09:01 437.525
50 SAT 30 Jul 01:02:13 01:03:42 12° 271° (W) 01:04:58 437.505
QB50P2 30 Jul 01:04:43 01:08:58 66° 285° (WNW) 01:13:11 145.880/145.840
SWISSCUBE 30 Jul 01:08:27 01:10:08 12° 63° (ENE) 01:12:06 437.505
VERMONT LUNAR 30 Jul 01:09:42 01:12:38 35° 204° (SSW) 01:15:32 437.305
YUBILEINY 30 Jul 01:13:59 01:22:18 55° 91° (E) 01:30:46 435.215
BUGSAT 1 30 Jul 01:16:02 01:20:07 83° 284° (WNW) 01:24:12 437.445
AIST 2 30 Jul 01:21:05 01:24:01 19° 112° (ESE) 01:27:06 435.215
TISAT 1 30 Jul 01:22:50 01:27:02 87° 78° (ENE) 01:31:14 437.305
ITUPSAT 1 30 Jul 01:26:44 01:29:41 17° 65° (ENE) 01:32:49 437.325
DUCHIFAT 1 30 Jul 01:32:40 01:36:31 34° 289° (WNW) 01:40:20 145.980
QB50P1 30 Jul 01:33:56 01:37:44 32° 289° (WNW) 01:41:29 145.935-145.965
NANOSAT C BR1 30 Jul 01:36:17 01:40:03 30° 289° (WNW) 01:43:44 145.865
BEESAT 2 30 Jul 01:42:40 01:46:41 53° 304° (NW) 01:50:44 435.950
UNISAT 6 30 Jul 01:52:34 01:53:42 11° 297° (WNW) 01:54:34 437.425
Oscar 19 30 Jul 01:57:07 02:00:09 16° 90° (E) 02:03:24 437.125/150
POLYITAN 1 30 Jul 02:17:36 02:19:14 12° 295° (WNW) 02:20:38 437.675
PHONESAT 2.4 30 Jul 02:17:52 02:21:21 68° 197° (SSW) 02:24:48 2401.200-2431.200
BEESAT 30 Jul 02:22:33 02:27:16 62° 74° (ENE) 02:32:01 436.000
BEESAT 3 30 Jul 02:28:05 02:30:50 17° 315° (NW) 02:33:29 437.485
Gurwin Techsat 1B 30 Jul 02:37:17 02:38:17 11° 87° (E) 02:39:42 435.225
SWISSCUBE 30 Jul 02:42:38 02:47:26 75° 258° (WSW) 02:52:16 437.505
Cosmos 2491 30 Jul 02:52:22 02:57:53 18° 280° (W) 03:02:53 435.465 / 435.565
AIST 2 30 Jul 02:58:19 03:02:20 39° 307° (NW) 03:06:23 435.215
ITUPSAT 1 30 Jul 03:02:30 03:07:12 52° 260° (W) 03:11:55 437.325
ITAMSAT 1 30 Jul 03:11:52 03:15:45 22° 93° (E) 03:19:45 435.822/435.867
YUBILEINY 30 Jul 03:12:00 03:19:37 32° 291° (WNW) 03:27:04 435.215
O/OREOS (USA 219) 30 Jul 03:14:01 03:18:28 69° 293° (WNW) 03:22:58 437.305
RS-15 30 Jul 03:18:23 03:25:42 18° 354° (N) 03:33:08 29.354- 29.394
Cosmos 2504 30 Jul 03:22:07 03:28:32 40° 88° (E) 03:35:25 435.465 / 435.565
Oscar 19 30 Jul 03:34:51 03:39:56 57° 287° (WNW) 03:45:00 437.125/150
STARS 30 Jul 03:35:25 03:39:20 34° 71° (ENE) 03:43:19 437.465
KKS-1 30 Jul 03:55:25 03:59:51 83° 258° (WSW) 04:04:17 437.445
PHONESAT 2.4 30 Jul 03:56:33 03:58:58 17° 212° (SSW) 04:01:19 2401.200-2431.200
BEESAT 30 Jul 04:03:17 04:05:36 13° 271° (W) 04:07:39 436.000
ISS 30 Jul 04:03:22 04:05:38 17° 21° (NNE) 04:07:56 145.825
Gurwin Techsat 1B 30 Jul 04:13:43 04:19:03 84° 285° (WNW) 04:24:22 435.225
AO-7 30 Jul 04:20:05 04:25:54 21° 91° (E) 04:32:03 29.400- 29.500
JAS-2 30 Jul 04:20:22 04:27:52 48° 97° (E) 04:35:20 435.910
MOZHAYETS 4 30 Jul 04:28:50 04:32:36 26° 69° (ENE) 04:36:28
ITAMSAT 1 30 Jul 04:50:35 04:55:28 42° 289° (WNW) 05:00:18 435.822/435.867
HORYU 2 30 Jul 04:53:52 04:57:46 29° 96° (E) 05:01:42 437.375
STARS 30 Jul 05:12:39 05:15:54 20° 267° (W) 05:19:02 437.465
Cosmos 2504 30 Jul 05:14:26 05:20:50 34° 289° (WNW) 05:27:30 435.465 / 435.565
DANDE 30 Jul 05:14:46 05:17:42 24° 98° (E) 05:20:12 436.750
RS-15 30 Jul 05:34:25 05:43:42 27° 29° (NNE) 05:53:35 29.354- 29.394
ISS 30 Jul 05:39:10 05:42:26 82° 218° (SW) 05:45:41 145.825
CUSAT 1 30 Jul 05:52:09 05:55:09 42° 281° (W) 05:57:45 437.405
Gurwin Techsat 1B 30 Jul 05:56:56 05:58:19 11° 300° (WNW) 05:59:22 435.225
GONETS M04 30 Jul 05:57:40 06:03:42 22° 82° (E) 06:10:07
MOZHAYETS 4 30 Jul 06:05:38 06:09:43 30° 265° (W) 06:13:48
JAS-2 30 Jul 06:05:40 06:12:41 37° 293° (WNW) 06:19:35 435.910
AO-7 30 Jul 06:11:15 06:19:37 77° 290° (WNW) 06:27:53 29.400- 29.500
CUBESAT XI-V 30 Jul 06:15:57 06:19:56 29° 70° (ENE) 06:23:59 437.345
HORYU 2 30 Jul 06:30:34 06:34:18 25° 291° (WNW) 06:37:57 437.375
Cubesat XI-IV 30 Jul 06:44:40 06:47:33 15° 89° (E) 06:50:41 437.490
PRISM 30 Jul 06:48:46 06:51:00 15° 66° (ENE) 06:53:25 437.425
JUGNU 30 Jul 06:54:15 06:55:32 11° 179° (S) 06:56:49 437.505
DANDE 30 Jul 06:59:58 07:00:45 10° 285° (WNW) 07:01:20 436.750
Cosmos 2499 30 Jul 07:22:50 07:26:13 14° 79° (E) 07:30:14 435.465 / 435.565
STRAND 1 30 Jul 07:25:29 07:30:24 49° 72° (ENE) 07:35:23 437.568
CUTE-I 30 Jul 07:39:38 07:44:48 51° 99° (E) 07:49:58 437.470
RS-15 30 Jul 07:46:47 07:58:36 76° 56° (NE) 08:10:52 29.354- 29.394
GONETS M04 30 Jul 07:51:05 07:59:48 72° 279° (W) 08:08:30
CUBESAT XI-V 30 Jul 07:53:20 07:57:21 27° 266° (W) 08:01:16 437.345
AO-7 30 Jul 08:06:08 08:11:14 17° 308° (NW) 08:15:55 29.400- 29.500
PRISM 30 Jul 08:22:03 08:26:06 46° 261° (W) 08:30:09 437.425
Cubesat XI-IV 30 Jul 08:22:54 08:28:12 63° 287° (WNW) 08:33:26 437.490
BRITE-PL 30 Jul 08:31:07 08:34:19 20° 94° (E) 08:37:48 437.365/2234.400
SRMSAT 30 Jul 08:41:35 08:42:55 11° 179° (S) 08:44:15 437.500
GOMX 1 30 Jul 08:53:34 08:56:58 21° 94° (E) 09:00:40 467.674
DOVE 4 30 Jul 08:54:19 08:56:26 13° 90° (E) 08:58:53 437.250
STRAND 1 30 Jul 09:06:19 09:09:57 19° 269° (W) 09:13:24 437.568
BEESAT 3 30 Jul 09:08:28 09:11:43 23° 48° (NE) 09:14:58 437.485
Cosmos 2499 30 Jul 09:10:54 09:18:13 89° 280° (W) 09:26:09 435.465 / 435.565
CUTE-I 30 Jul 09:20:41 09:24:33 20° 295° (WNW) 09:28:14 437.470
CINEMA 3 30 Jul 09:21:09 09:22:29 11° 89° (E) 09:24:08 145.822/145.860
M-CUBED/EXP-1 PRIME 30 Jul 09:23:58 09:27:23 29° 64° (ENE) 09:31:07 437.505
AIST 2 30 Jul 09:44:08 09:45:42 12° 40° (NE) 09:47:25 435.215
SO-50 30 Jul 09:49:28 09:52:53 21° 111° (ESE) 09:56:31 436.795
PCSat 30 Jul 09:53:56 09:58:46 35° 111° (ESE) 10:03:42 145.827
GONETS M04 30 Jul 09:54:32 09:58:38 13° 303° (WNW) 10:02:07
AUBIESAT-1 30 Jul 09:55:01 09:58:52 55° 69° (ENE) 10:03:06 437.475
RS-15 30 Jul 10:00:24 10:10:17 30° 254° (WSW) 10:19:56 29.354- 29.394
BEESAT 2 30 Jul 10:02:35 10:06:39 63° 57° (ENE) 10:10:37 435.950
CUBEBUG 2 30 Jul 10:05:51 10:08:40 16° 91° (E) 10:11:42 437.445
COMPASS 1 30 Jul 10:08:40 10:12:40 40° 97° (E) 10:16:39 437.405
BRITE-PL 30 Jul 10:09:02 10:12:58 34° 288° (WNW) 10:17:05 437.365/2234.400
HO-68 30 Jul 10:11:37 10:18:48 68° 103° (ESE) 10:25:57 435.675
Oscar 11 30 Jul 10:15:42 10:18:40 18° 92° (E) 10:21:45 145.826/435.025
CUTE 1.7 + AOD 2 30 Jul 10:19:03 10:23:23 89° 105° (ESE) 10:27:40 437.475
SEEDS 30 Jul 10:19:50 10:24:07 73° 101° (E) 10:28:21 437.485
TIGRISAT 30 Jul 10:20:14 10:22:54 17° 66° (ENE) 10:25:46 435.000
ANTELSAT 30 Jul 10:20:51 10:23:42 18° 67° (ENE) 10:26:43 437.575/2403.000
CANX-2 30 Jul 10:27:08 10:31:25 66° 285° (WNW) 10:35:41 2200.000
DOVE 4 30 Jul 10:30:04 10:34:33 58° 285° (WNW) 10:39:18 437.250
GOMX 1 30 Jul 10:31:08 10:35:12 34° 287° (WNW) 10:39:27 467.674
BEESAT 3 30 Jul 10:46:05 10:49:41 31° 246° (WSW) 10:53:12 437.485
DUCHIFAT 1 30 Jul 10:50:17 10:52:07 13° 66° (ENE) 10:54:07 145.980
QB50P1 30 Jul 10:51:32 10:53:39 14° 66° (ENE) 10:55:57 145.935-145.965
AAUSAT CUBESAT 2 30 Jul 10:51:56 10:56:09 72° 284° (WNW) 11:00:18 437.432
NANOSAT C BR1 30 Jul 10:53:33 10:55:46 15° 66° (ENE) 10:58:10 145.865
DELFI C3 30 Jul 10:53:44 10:57:22 31° 96° (E) 11:01:00 145.870
CINEMA 3 30 Jul 10:55:31 11:00:09 70° 284° (WNW) 11:04:58 145.822/145.860
M-CUBED/EXP-1 PRIME 30 Jul 10:59:04 11:02:13 22° 263° (W) 11:05:29 437.505
Cosmos 2499 30 Jul 11:08:27 11:12:53 15° 300° (WNW) 11:17:01 435.465 / 435.565
UNISAT 6 30 Jul 11:10:44 11:14:59 62° 75° (ENE) 11:19:23 437.425
ZACube-1 30 Jul 11:11:13 11:15:37 48° 99° (E) 11:20:04 437.345
AIST 2 30 Jul 11:20:43 11:24:55 85° 241° (WSW) 11:29:02 435.215
YUBILEINY 30 Jul 11:25:58 11:32:47 25° 66° (ENE) 11:39:56 435.215
SO-50 30 Jul 11:28:33 11:33:07 46° 307° (NW) 11:37:51 436.795
UWE-3 30 Jul 11:30:03 11:34:39 80° 282° (WNW) 11:39:19 435.000/436.395/437.385
POLYITAN 1 30 Jul 11:31:31 11:35:24 39° 72° (ENE) 11:39:22 437.675
AUBIESAT-1 30 Jul 11:32:40 11:34:08 11° 268° (W) 11:35:22 437.475
FUNcube-1 30 Jul 11:33:49 11:38:22 85° 104° (ESE) 11:42:57 145.935
PCSat 30 Jul 11:37:23 11:42:13 32° 308° (NW) 11:47:03 145.827
CUBEBUG 2 30 Jul 11:41:10 11:45:37 48° 286° (WNW) 11:50:08 437.445
BEESAT 2 30 Jul 11:43:27 11:44:12 10° 251° (WSW) 11:44:43 435.950
AISAT 30 Jul 11:44:07 11:47:01 17° 92° (E) 11:50:02 437.250
COMPASS 1 30 Jul 11:45:19 11:48:02 16° 293° (WNW) 11:50:36 437.405
O/OREOS (USA 219) 30 Jul 11:46:38 11:49:51 19° 56° (NE) 11:53:12 437.305
POPSAT HIP 1 30 Jul 11:49:13 11:53:21 63° 75° (ENE) 11:57:30 437.405
Oscar 11 30 Jul 11:50:58 11:55:00 36° 288° (WNW) 11:58:59 145.826/435.025
UKube-1 30 Jul 11:52:01 11:55:52 32° 97° (E) 11:59:45 .
TIGRISAT 30 Jul 11:55:14 11:59:20 42° 262° (W) 12:03:31 435.000
ANTELSAT 30 Jul 11:56:07 12:00:11 40° 263° (W) 12:04:21 437.575/2403.000
QB50P2 30 Jul 11:56:15 12:00:26 80° 76° (ENE) 12:04:40 145.880/145.840
Cosmos 2491 30 Jul 11:59:49 12:05:18 20° 81° (E) 12:11:14 435.465 / 435.565
HO-68 30 Jul 12:00:29 12:05:59 24° 300° (WNW) 12:11:16 435.675
BUGSAT 1 30 Jul 12:04:51 12:08:49 57° 75° (ENE) 12:12:48 437.445
CUBEBUG 1 30 Jul 12:05:13 12:07:50 16° 91° (E) 12:10:38 437.445
HUMSAT D 30 Jul 12:15:44 12:20:04 78° 284° (WNW) 12:24:23 437.325/437.525
DX 1 30 Jul 12:16:27 12:20:46 68° 102° (ESE) 12:25:05 434.975-435.025
VELOX 1 30 Jul 12:22:49 12:27:03 45° 99° (E) 12:31:17 145.980
DUCHIFAT 1 30 Jul 12:23:25 12:27:30 52° 260° (W) 12:31:37 145.980
QB50P1 30 Jul 12:25:05 12:29:09 48° 261° (W) 12:33:13 145.935-145.965
ESTCUBE 1 30 Jul 12:26:10 12:30:16 34° 97° (E) 12:34:21 437.505/2401.250
NANOSAT C BR1 30 Jul 12:27:13 12:31:15 46° 261° (W) 12:35:18 145.865
DELFI C3 30 Jul 12:29:18 12:32:14 19° 291° (WNW) 12:35:03 145.870
50 SAT 30 Jul 12:35:37 12:39:38 84° 101° (ESE) 12:43:36 437.505
ZACube-1 30 Jul 12:48:44 12:51:37 16° 293° (WNW) 12:54:21 437.345
SPROUT 30 Jul 12:49:34 12:51:53 15° 90° (E) 12:54:25 437.525
UNISAT 6 30 Jul 12:51:12 12:52:19 11° 272° (W) 12:53:09 437.425
POLYITAN 1 30 Jul 13:08:52 13:11:31 16° 269° (W) 13:14:01 437.675
TISAT 1 30 Jul 13:09:42 13:11:59 15° 91° (E) 13:14:26 437.305
Cosmos 2504 30 Jul 13:10:44 13:14:03 13° 59° (ENE) 13:18:03 435.465 / 435.565
Oscar 19 30 Jul 13:12:53 13:16:39 22° 66° (ENE) 13:20:35 437.125/150
AIST 1 30 Jul 13:14:28 13:18:50 76° 96° (E) 13:23:11
AISAT 30 Jul 13:19:39 13:23:47 39° 288° (WNW) 13:27:52 437.250
YUBILEINY 30 Jul 13:21:44 13:30:30 69° 267° (W) 13:39:12 435.215
O/OREOS (USA 219) 30 Jul 13:25:11 13:29:32 43° 253° (WSW) 13:33:51 437.305
UKube-1 30 Jul 13:28:30 13:31:50 21° 292° (WNW) 13:35:03 .
CUBEBUG 1 30 Jul 13:40:21 13:44:25 40° 288° (WNW) 13:48:28 437.445
Cosmos 2491 30 Jul 13:52:27 14:01:16 81° 279° (W) 14:10:03 435.465 / 435.565
DX 1 30 Jul 13:55:12 13:56:31 11° 296° (WNW) 13:57:35 434.975-435.025
Gurwin Techsat 1B 30 Jul 13:56:12 13:59:31 18° 64° (ENE) 14:03:03 435.225
VELOX 1 30 Jul 14:00:28 14:03:17 16° 294° (WNW) 14:05:55 145.980
ESTCUBE 1 30 Jul 14:03:30 14:06:56 21° 292° (WNW) 14:10:15 437.505/2401.250
SPROUT 30 Jul 14:24:09 14:28:16 44° 287° (WNW) 14:32:20 437.525
BEESAT 30 Jul 14:25:03 14:28:04 17° 91° (E) 14:31:15 436.000
ITAMSAT 1 30 Jul 14:28:39 14:33:08 31° 68° (ENE) 14:37:43 435.822/435.867
JAS-2 30 Jul 14:33:52 14:37:33 17° 58° (ENE) 14:41:46 435.910
TISAT 1 30 Jul 14:44:00 14:48:00 43° 287° (WNW) 14:51:59 437.305
SWISSCUBE 30 Jul 14:44:26 14:48:36 30° 96° (E) 14:52:47 437.505
Oscar 19 30 Jul 14:50:53 14:55:45 43° 261° (W) 15:00:38 437.125/150
Cosmos 2504 30 Jul 14:59:40 15:08:03 70° 81° (E) 15:16:39 435.465 / 435.565
ITUPSAT 1 30 Jul 15:04:10 15:08:43 43° 98° (E) 15:13:15 437.325
AO-7 30 Jul 15:17:57 15:24:44 30° 59° (ENE) 15:31:43 29.400- 29.500
YUBILEINY 30 Jul 15:23:30 15:25:53 11° 284° (WNW) 15:27:28 435.215
Gurwin Techsat 1B 30 Jul 15:33:50 15:39:04 60° 259° (W) 15:44:20 435.225
KKS-1 30 Jul 15:48:20 15:51:36 20° 93° (E) 15:55:00 437.445
HORYU 2 30 Jul 15:51:23 15:54:54 24° 69° (ENE) 15:58:32 437.375
DANDE 30 Jul 15:52:48 15:55:28 19° 77° (ENE) 15:58:48 436.750
Cosmos 2491 30 Jul 15:54:44 15:59:51 16° 301° (WNW) 16:04:24 435.465 / 435.565
BEESAT 30 Jul 16:01:38 16:06:13 47° 288° (WNW) 16:10:45 436.000
ITAMSAT 1 30 Jul 16:07:58 16:12:36 31° 264° (W) 16:17:11 435.822/435.867
JAS-2 30 Jul 16:15:49 16:21:42 80° 257° (WSW) 16:28:30 435.910
SWISSCUBE 30 Jul 16:22:20 16:26:23 27° 291° (WNW) 16:30:19 437.505
CUSAT 1 30 Jul 16:25:36 16:29:39 80° 83° (E) 16:35:05 437.405
ITUPSAT 1 30 Jul 16:42:50 16:46:19 20° 294° (WNW) 16:49:39 437.325
Cosmos 2504 30 Jul 16:53:11 16:59:39 24° 276° (W) 17:05:52 435.465 / 435.565
STARS 30 Jul 17:01:47 17:06:14 81° 103° (ESE) 17:10:39 437.465
AO-7 30 Jul 17:08:45 17:17:02 64° 257° (WSW) 17:25:21 29.400- 29.500
KKS-1 30 Jul 17:24:17 17:28:21 34° 289° (WNW) 17:32:22 437.445
HORYU 2 30 Jul 17:27:31 17:31:26 30° 264° (W) 17:35:20 437.375
DANDE 30 Jul 17:35:16 17:38:31 26° 262° (W) 17:42:29 436.750
MOZHAYETS 4 30 Jul 18:01:06 18:05:44 69° 101° (E) 18:10:20
GONETS M04 30 Jul 18:02:39 18:11:09 55° 77° (ENE) 18:19:42
Cubesat XI-IV 30 Jul 18:05:13 18:09:23 24° 66° (ENE) 18:13:41 437.490
SO-50 30 Jul 18:21:23 18:24:46 18° 42° (NE) 18:28:13 436.795
PCSat 30 Jul 18:42:47 18:47:12 25° 49° (NE) 18:51:41 145.827
CUTE-I 30 Jul 19:00:19 19:05:40 76° 76° (ENE) 19:11:03 437.470
Cosmos 2499 30 Jul 19:02:44 19:10:21 34° 70° (ENE) 19:18:17 435.465 / 435.565
VERMONT LUNAR 30 Jul 19:17:50 19:20:20 22° 151° (SSE) 19:22:52 437.305
STRAND 1 30 Jul 19:38:09 19:41:29 18° 91° (E) 19:44:59 437.568
MOZHAYETS 4 30 Jul 19:40:31 19:42:26 12° 296° (WNW) 19:44:07
BRITE-PL 30 Jul 19:41:46 19:45:00 21° 70° (ENE) 19:48:13 437.365/2234.400
Cubesat XI-IV 30 Jul 19:44:10 19:49:16 42° 262° (W) 19:54:21 437.490
CUBESAT XI-V 30 Jul 19:50:11 19:54:49 82° 104° (ESE) 19:59:24 437.345
GONETS M04 30 Jul 20:00:16 20:07:36 31° 275° (W) 20:14:44
SO-50 30 Jul 20:00:55 20:05:51 68° 241° (WSW) 20:10:39 436.795
DOVE 4 30 Jul 20:01:15 20:01:54 10° 65° (ENE) 20:02:47 437.250
GOMX 1 30 Jul 20:01:50 20:04:46 19° 69° (ENE) 20:07:47 467.674
PRISM 30 Jul 20:05:42 20:09:03 24° 95° (E) 20:12:27 437.425
PCSat 30 Jul 20:25:41 20:30:53 48° 248° (WSW) 20:36:03 145.827
HO-68 30 Jul 20:38:57 20:45:37 46° 67° (ENE) 20:52:23 435.675
PHONESAT 2.4 30 Jul 20:40:57 20:43:04 15° 147° (SSE) 20:45:15 2401.200-2431.200
CUTE-I 30 Jul 20:44:04 20:46:26 12° 272° (W) 20:48:28 437.470
VERMONT LUNAR 30 Jul 20:53:38 20:56:50 82° 168° (SSE) 21:00:01 437.305
Cosmos 2499 30 Jul 20:55:27 21:03:53 54° 269° (W) 21:12:23 435.465 / 435.565
COMPASS 1 30 Jul 20:59:05 21:02:29 25° 70° (ENE) 21:05:59 437.405
CUBEBUG 2 30 Jul 21:05:15 21:06:17 11° 64° (ENE) 21:07:32 437.445
CUTE 1.7 + AOD 2 30 Jul 21:10:34 21:14:43 54° 75° (ENE) 21:18:55 437.475
Oscar 11 30 Jul 21:10:38 21:12:38 13° 66° (ENE) 21:14:51 145.826/435.025
SEEDS 30 Jul 21:10:38 21:14:37 42° 73° (ENE) 21:18:41 437.485
STRAND 1 30 Jul 21:16:06 21:21:03 50° 288° (WNW) 21:25:56 437.568
CANX-2 30 Jul 21:18:34 21:22:49 76° 78° (ENE) 21:27:08 2200.000
BRITE-PL 30 Jul 21:19:23 21:23:26 32° 263° (W) 21:27:14 437.365/2234.400
CUBESAT XI-V 30 Jul 21:31:22 21:31:39 10° 297° (WNW) 21:31:39 437.345
DOVE 4 30 Jul 21:35:06 21:39:14 62° 259° (W) 21:43:21 437.250
GOMX 1 30 Jul 21:38:53 21:42:46 32° 263° (W) 21:46:32 467.674
DELFI C3 30 Jul 21:40:33 21:43:15 18° 68° (ENE) 21:46:04 145.870
PRISM 30 Jul 21:41:03 21:44:26 25° 291° (WNW) 21:47:44 437.425
AAUSAT CUBESAT 2 30 Jul 21:41:11 21:45:19 64° 76° (ENE) 21:49:30 437.432
CINEMA 3 30 Jul 21:56:31 22:00:39 85° 258° (WSW) 22:04:52 145.822/145.860
ZACube-1 30 Jul 22:06:31 22:10:12 31° 71° (ENE) 22:14:01 437.345
RS-15 30 Jul 22:09:06 22:19:24 53° 112° (ESE) 22:30:10 29.354- 29.394
PHONESAT 2.4 30 Jul 22:17:10 22:20:38 61° 161° (SSE) 22:24:07 2401.200-2431.200
ISS 30 Jul 22:17:36 22:20:46 53° 138° (SE) 22:23:57 145.825
UWE-3 30 Jul 22:26:11 22:30:19 72° 76° (ENE) 22:34:34 435.000/436.395/437.385
HO-68 30 Jul 22:27:11 22:33:31 33° 264° (W) 22:39:47 435.675
FUNcube-1 30 Jul 22:28:32 22:32:35 55° 75° (ENE) 22:36:46 145.935
VERMONT LUNAR 30 Jul 22:30:29 22:33:39 67° 2° (N) 22:36:48 437.305
COMPASS 1 30 Jul 22:34:32 22:38:05 25° 265° (W) 22:41:37 437.405
CUBEBUG 2 30 Jul 22:38:21 22:42:28 62° 259° (W) 22:46:41 437.445
M-CUBED/EXP-1 PRIME 30 Jul 22:39:56 22:44:09 31° 100° (E) 22:48:20 437.505
AISAT 30 Jul 22:41:41 22:44:04 15° 66° (ENE) 22:46:38 437.250
Oscar 11 30 Jul 22:44:09 22:48:23 54° 261° (W) 22:52:40 145.826/435.025
UKube-1 30 Jul 22:46:05 22:49:32 25° 69° (ENE) 22:53:06 .
SEEDS 30 Jul 22:48:08 22:50:41 15° 270° (W) 22:53:03 437.485
CUTE 1.7 + AOD 2 30 Jul 22:49:15 22:51:02 12° 271° (W) 22:52:35 437.475
CUBEBUG 1 30 Jul 23:01:25 23:03:19 13° 65° (ENE) 23:05:26 437.445
UNISAT 6 30 Jul 23:04:51 23:07:30 15° 90° (E) 23:10:22 437.425
HUMSAT D 30 Jul 23:06:10 23:10:14 62° 75° (ENE) 23:14:22 437.325/437.525
AUBIESAT-1 30 Jul 23:10:36 23:15:18 55° 105° (ESE) 23:19:50 437.475
DX 1 30 Jul 23:10:51 23:15:03 51° 73° (ENE) 23:19:16 434.975-435.025
DELFI C3 30 Jul 23:14:22 23:18:06 34° 263° (W) 23:21:48 145.870
50 SAT 30 Jul 23:18:19 23:21:54 37° 73° (ENE) 23:25:32 437.505
VELOX 1 30 Jul 23:19:23 23:23:24 35° 71° (ENE) 23:27:27 145.980
AIST 1 30 Jul 23:23:53 23:26:32 16° 71° (ENE) 23:29:20
ESTCUBE 1 30 Jul 23:24:53 23:28:44 29° 70° (ENE) 23:32:41 437.505/2401.250
